Fort Huachuca, AZ

10:02 AM MST on February 25, 2017 (GMT -0700)
Sierra Vista Municipal-Libby Army Air Field

Weather History for KFHU - March, 2012

Change the Weather History Date:

Friday, March 9, 2012

  Actual Average Record
Temperature  
Mean Temperature 44 °F -  
Max Temperature 53 °F 66 °F 88 °F (1989)
Min Temperature 35 °F 43 °F 33 °F (1998)
Degree Days  
Heating Degree Days 21    
Moisture  
Dew Point 19 °F    
Average Humidity 37    
Maximum Humidity 49    
Minimum Humidity 24    
Precipitation  
Precipitation 0.00 in - - ()
Sea Level Pressure  
Sea Level Pressure 30.17 in    
Wind  
Wind Speed 15 mph (ESE)    
Max Wind Speed 24 mph    
Max Gust Speed 29 mph    
Visibility 10 miles    
Events      
Averages and records for this station are not official NWS values.
T = Trace of Precipitation, MM = Missing Value Source: NWS Daily Summary

Daily Weather History Graph

Daily Weather History Graph

Search for Another Location

Airport or City:

Trip Planner

Search our weather history database for the weather conditions in past years. The results will help you decide how hot, cold, wet, or windy it might be!

Date:

Astronomy

Mar. 09, 2012 Rise Set
Actual Time 6:38 AM MST 6:25 PM MST
Civil Twilight 6:13 AM MST 6:49 PM MST
Nautical Twilight 5:45 AM MST 7:18 PM MST
Astronomical Twilight 5:17 AM MST 7:46 PM MST
Moon 8:17 PM MST (3/9) 7:08 AM MST (3/9)
Length of Visible Light 12h 36m
Length of Day
11h 47m
Full, 97% of the Moon is Illuminated
Mar 9
Full
Mar 14
Last Quarter
Mar 22
New
Mar 30
First Quarter
Apr 6
Full

Hourly Weather History & Observations

Time (MST) Temp. Windchill Dew Point Humidity Pressure Visibility Wind Dir Wind Speed Gust Speed Precip Events Conditions
12:56 AM 41.0 °F 32.8 °F 19.9 °F 43% 30.27 in 10.0 mi East 16.1 mph - N/A   Clear
1:56 AM 39.0 °F 32.3 °F 21.0 °F 49% 30.27 in 10.0 mi ESE 10.4 mph - N/A   Clear
2:56 AM 39.0 °F 31.4 °F 21.0 °F 49% 30.23 in 10.0 mi ESE 12.7 mph - N/A   Clear
3:56 AM 39.0 °F 31.4 °F 21.0 °F 49% 30.22 in 10.0 mi SE 12.7 mph - N/A   Clear
4:56 AM 37.9 °F 30.5 °F 19.0 °F 47% 30.24 in 10.0 mi SE 11.5 mph - N/A   Clear
5:55 AM 35.6 °F 28.0 °F 17.6 °F 48% 30.26 in 10.0 mi East 10.4 mph - N/A   Clear
6:55 AM 35.6 °F 26.6 °F 17.6 °F 48% 30.28 in 10.0 mi ESE 13.8 mph - N/A   Clear
7:55 AM 39.2 °F 29.3 °F 17.6 °F 42% 30.28 in 10.0 mi ESE 20.7 mph - N/A   Clear
8:55 AM 42.8 °F 34.0 °F 17.6 °F 36% 30.28 in 10.0 mi East 20.7 mph - N/A   Clear
9:55 AM 44.6 °F 35.7 °F 17.6 °F 34% 30.26 in 10.0 mi ESE 24.2 mph 27.6 mph N/A   Clear
10:55 AM 46.4 °F 38.5 °F 17.6 °F 32% 30.22 in 10.0 mi East 21.9 mph 27.6 mph N/A   Clear
11:55 AM 51.8 °F - 17.6 °F 26% 30.18 in 10.0 mi ESE 16.1 mph 21.9 mph N/A   Partly Cloudy
12:55 PM 51.8 °F - 17.6 °F 26% 30.15 in 10.0 mi ESE 15.0 mph 28.8 mph N/A   Partly Cloudy
1:55 PM 53.6 °F - 17.6 °F 24% 30.12 in 10.0 mi East 17.3 mph 28.8 mph N/A   Partly Cloudy
2:55 PM 53.6 °F - 17.6 °F 24% 30.09 in 10.0 mi East 16.1 mph 24.2 mph N/A   Partly Cloudy
3:55 PM 53.6 °F - 17.6 °F 24% 30.07 in 10.0 mi East 19.6 mph - N/A   Partly Cloudy
4:55 PM 51.8 °F - 17.6 °F 26% 30.07 in 10.0 mi East 16.1 mph - N/A   Partly Cloudy
5:55 PM 50.0 °F - 17.6 °F 28% 30.09 in 10.0 mi East 13.8 mph - N/A   Partly Cloudy
6:55 PM 46.4 °F 41.1 °F 17.6 °F 32% 30.10 in 10.0 mi East 11.5 mph - N/A   Partly Cloudy
7:55 PM 44.6 °F 39.2 °F 19.4 °F 37% 30.09 in 10.0 mi East 10.4 mph - N/A   Scattered Clouds
8:55 PM 44.6 °F 39.2 °F 19.4 °F 37% 30.10 in 10.0 mi ESE 10.4 mph - N/A   Scattered Clouds
9:55 PM 42.8 °F 37.0 °F 19.4 °F 39% 30.09 in 10.0 mi ESE 10.4 mph - N/A   Scattered Clouds
10:55 PM 41.0 °F 35.2 °F 19.4 °F 42% 30.06 in 10.0 mi SSE 9.2 mph - N/A   Scattered Clouds
11:56 PM 39.9 °F 35.1 °F 19.9 °F 45% 30.04 in 10.0 mi SSE 6.9 mph - N/A   Clear